Vorticity
8 14 16 6 15 14 8 4 8 6 5 6 16 17 10 18 7 19 2 5 10 13 11 12 2 11 15 3 20 -2 10 -3 9 -32 -6 8 7 16 17 14 -1 7 6 9 13
7 14 15 6 15 11 5 5 11 7 3 12 17 5 17 13 12 2 11 4 10 10 17 14 6 15 8 2 20 4 -2 11 -2 10 25 13 28 39 -9 15 14 12 11 14 13
3 19 16 10 15 8 2 10 14 10 6 11 6 5 6 20 10 4 6 9 9 7 10 8 12 26 16 -4 19 1 1 8 8 3 1 1 10 2 12 14 13 19 22 9 8
1 18 21 11 13 11 9 13 13 13 7 -2 5 11 12 15 4 7 8 8 9 9 15 11 26 8 10 18 -1 2 20 32 22 6 5 4 0 1 12 10 10 13 7 7 5
2 17 21 14 13 11 7 11 18 12 3 9 10 5 14 7 8 6 5 6 13 21 15 11 17 19 4 11 10 -0 -20 19 6 14 2 -0 -3 19 6 8 6 7 6 7 6
5 25 23 6 7 10 13 5 2 23 11 11 8 19 6 8 12 5 11 8 17 24 29 12 8 7 7 4 -1 28 18 1 -0 2 4 -0 9 5 5 4 1 4 8 5 4
7 30 10 9 8 7 14 3 4 23 12 9 4 4 12 8 5 9 11 16 17 26 -7 6 0 6 11 12 21 1 9 4 10 6 3 18 11 4 5 6 6 6 5 5 4
14 17 7 3 13 17 8 10 11 17 18 5 6 -3 13 10 13 8 13 15 11 10 -3 4 -2 -1 17 4 -2 -8 8 8 -2 14 19 6 5 4 4 6 10 6 9 7 4
30 12 3 19 14 4 16 21 13 5 15 6 9 5 11 16 6 9 20 7 15 -4 8 18 -7 17 6 1 4 6 -7 5 17 17 4 4 9 5 16 8 2 16 8 7 6
28 9 10 10 20 16 12 18 17 17 8 6 19 12 13 7 9 13 14 14 9 -6 -3 7 5 -6 -7 4 10 13 3 11 6 6 4 6 4 10 3 10 12 9 6 6 5
16 5 0 13 4 4 12 14 19 11 2 15 10 7 14 10 10 17 14 8 4 -1 3 1 -1 -4 -2 12 6 23 6 5 2 4 6 11 8 6 6 4 6 8 3 4 5
8 6 6 17 1 24 19 17 12 8 8 10 11 19 11 17 19 13 15 3 5 -7 -5 2 3 1 11 1 9 7 5 -2 2 2 4 4 10 5 7 6 7 3 6 8 6
11 1 2 22 12 4 16 17 7 9 13 15 15 13 13 12 15 24 16 4 15 -2 1 11 21 25 12 4 5 9 2 6 -3 -1 1 2 -0 2 6 4 2 3 5 6 2
12 -2 21 24 9 6 8 5 10 10 19 11 13 4 7 8 11 18 18 14 7 0 9 25 12 7 2 -0 2 13 21 8 3 2 -0 1 4 8 3 2 4 4 4 5 2
10 7 8 5 9 3 13 9 15 13 9 14 6 12 10 13 12 13 8 14 14 16 5 9 7 8 -3 -7 9 11 5 2 2 3 5 4 3 5 3 3 4 4 5 7 3
7 7 20 18 9 24 15 13 12 11 6 12 11 10 10 11 10 9 8 8 7 3 8 6 -1 7 19 9 6 6 6 5 4 3 3 3 5 16 17 20 15 13 11 8 11
3 4 15 20 6 15 17 14 8 10 16 7 7 4 4 4 4 4 6 6 8 7 6 8 5 8 7 7 5 4 3 4 6 12 16 14 13 18 14 11 11 10 11 7 11
1 21 6 28 4 21 12 8 6 1 4 3 4 5 8 5 4 5 5 7 8 7 5 7 5 8 7 5 7 12 15 15 11 12 15 15 10 15 15 15 15 14 16 17 13
0 -0 10 18 15 11 6 5 5 4 5 5 6 6 8 8 6 9 9 9 6 8 7 6 7 6 10 10 15 10 11 12 8 10 11 15 13 12 13 13 14 14 12 12 11
5 -1 12 23 12 5 3 4 4 4 4 7 3 2 4 4 4 6 6 8 7 6 8 8 10 12 15 11 8 13 8 5 8 11 2 -1 -3 4 1 2 2 6 8 10 10
13 2 17 20 5 3 2 3 7 7 4 2 3 6 4 4 4 5 7 7 9 9 13 9 12 12 7 9 13 5 2 4 3 -1 1 7 8 8 4 7 6 4 8 8 10
21 8 20 11 3 2 2 5 5 8 2 4 2 2 5 5 8 9 12 8 8 13 11 8 9 8 11 10 3 3 0 2 0 2 2 3 1 4 3 3 3 3 5 7 6
5 16 19 5 3 2 1 6 4 5 2 6 3 6 9 14 16 15 9 9 10 8 9 12 12 10 9 2 5 3 2 0 3 4 5 6 3 2 8 4 4 3 3 5 3
10 13 16 4 3 2 3 5 2 11 9 1 3 6 13 14 9 11 7 9 8 10 11 10 7 9 5 2 3 1 4 2 3 5 3 4 3 2 6 4 4 2 4 4 3
14 14 8 2 3 2 4 4 1 2 -2 1 2 5 15 10 11 11 9 13 13 15 11 7 7 5 2 2 1 3 3 3 3 3 4 2 5 1 6 3 2 1 5 5 5
17 11 4 3 2 1 6 0 -0 0 0 1 1 5 12 14 10 9 10 13 10 10 9 7 10 4 3 2 2 2 3 3 3 4 5 4 7 1 7 4 4 3 5 6 7
18 8 4 2 2 2 4 3 1 0 3 2 1 7 12 13 6 9 9 10 9 9 8 6 7 6 2 1 3 4 3 4 2 2 3 5 3 4 6 7 4 3 3 7 8
Height
5779 5775 5772 5770 5765 5765 5765 5764 5765 5766 5765 5764 5762 5761 5761 5763 5765 5766 5767 5770 5770 5773 5777 5781 5784 5785 5787 5788 5790 5793 5795 5795 5800 5803 5807 5808 5809 5810 5814 5814 5815 5816 5816 5818 5818
5773 5768 5766 5763 5760 5760 5760 5760 5761 5762 5762 5761 5759 5759 5760 5761 5763 5763 5766 5767 5768 5772 5776 5779 5780 5783 5786 5788 5789 5790 5791 5796 5802 5805 5808 5807 5806 5809 5810 5813 5814 5814 5815 5818 5818
5767 5763 5760 5758 5755 5756 5755 5755 5757 5759 5758 5758 5757 5757 5758 5759 5760 5761 5763 5765 5767 5770 5774 5776 5779 5782 5785 5787 5788 5791 5792 5794 5801 5804 5804 5806 5807 5806 5811 5813 5813 5813 5816 5818 5819
5761 5758 5754 5753 5751 5752 5752 5751 5752 5754 5755 5756 5755 5755 5756 5756 5759 5760 5761 5763 5765 5768 5771 5774 5778 5781 5784 5786 5788 5790 5794 5795 5800 5802 5805 5806 5806 5810 5813 5814 5815 5815 5816 5817 5819
5756 5752 5750 5748 5747 5748 5748 5748 5748 5750 5752 5753 5753 5753 5754 5755 5757 5758 5760 5762 5763 5766 5768 5773 5777 5781 5783 5785 5787 5792 5794 5795 5797 5800 5802 5806 5810 5812 5813 5814 5815 5816 5816 5817 5818
5750 5747 5745 5744 5743 5744 5744 5744 5745 5745 5748 5750 5750 5751 5753 5754 5756 5757 5760 5761 5765 5769 5772 5776 5779 5781 5784 5789 5790 5792 5794 5796 5799 5801 5805 5808 5810 5811 5812 5813 5814 5815 5816 5817 5818
5745 5742 5741 5740 5740 5740 5740 5741 5741 5742 5745 5747 5748 5749 5751 5753 5755 5756 5759 5762 5766 5770 5773 5775 5778 5782 5785 5789 5791 5792 5796 5798 5801 5803 5806 5807 5809 5811 5812 5812 5813 5814 5815 5816 5816
5740 5738 5737 5737 5736 5736 5736 5737 5738 5740 5742 5743 5746 5748 5749 5752 5753 5756 5759 5762 5766 5770 5773 5775 5778 5782 5786 5790 5793 5795 5797 5800 5802 5803 5805 5807 5809 5810 5811 5811 5811 5812 5812 5814 5815
5736 5734 5734 5733 5733 5732 5732 5731 5734 5736 5738 5740 5744 5746 5748 5750 5752 5755 5759 5763 5766 5770 5773 5775 5778 5784 5788 5791 5793 5795 5797 5799 5801 5802 5804 5806 5808 5809 5809 5809 5811 5812 5812 5811 5811
5732 5730 5730 5730 5729 5729 5729 5729 5731 5733 5736 5739 5742 5744 5746 5748 5750 5755 5760 5763 5767 5772 5774 5777 5780 5784 5788 5790 5793 5796 5796 5797 5799 5802 5802 5804 5806 5807 5808 5809 5809 5809 5808 5808 5809
5727 5727 5729 5727 5727 5727 5727 5728 5731 5733 5735 5738 5740 5741 5744 5747 5750 5754 5760 5764 5768 5772 5776 5779 5782 5784 5785 5790 5793 5794 5795 5797 5799 5800 5801 5802 5804 5804 5805 5806 5805 5806 5806 5806 5805
5722 5724 5725 5724 5724 5725 5726 5727 5729 5732 5734 5735 5738 5740 5742 5746 5749 5753 5761 5765 5769 5772 5776 5779 5781 5785 5788 5790 5792 5794 5795 5797 5799 5799 5800 5800 5801 5802 5803 5803 5803 5804 5803 5803 5801
5719 5722 5721 5721 5723 5725 5726 5727 5729 5730 5733 5735 5737 5740 5742 5746 5750 5755 5761 5766 5770 5773 5776 5777 5780 5783 5786 5789 5791 5793 5794 5795 5797 5797 5797 5797 5797 5798 5799 5800 5800 5800 5800 5798 5797
5715 5719 5717 5718 5722 5724 5726 5727 5729 5731 5733 5736 5738 5741 5744 5747 5750 5754 5760 5766 5768 5771 5774 5777 5780 5782 5786 5789 5791 5792 5793 5794 5794 5794 5794 5794 5794 5794 5796 5796 5796 5796 5795 5794 5793
5712 5715 5715 5715 5719 5722 5724 5726 5728 5731 5734 5737 5739 5742 5745 5749 5753 5756 5760 5764 5767 5771 5776 5779 5781 5784 5786 5788 5790 5791 5792 5792 5792 5792 5792 5791 5792 5793 5791 5791 5791 5790 5790 5789 5788
5708 5711 5711 5713 5715 5720 5722 5725 5729 5733 5734 5737 5740 5743 5747 5751 5754 5758 5761 5765 5769 5771 5775 5778 5780 5783 5784 5786 5787 5789 5789 5789 5789 5789 5788 5788 5788 5787 5788 5788 5787 5786 5785 5783 5782
5704 5706 5708 5709 5714 5718 5720 5724 5729 5732 5736 5740 5743 5745 5748 5752 5756 5759 5762 5765 5769 5771 5774 5776 5779 5781 5783 5784 5785 5786 5786 5786 5786 5785 5785 5785 5784 5784 5783 5783 5782 5781 5781 5779 5777
5698 5702 5705 5707 5712 5716 5720 5725 5729 5733 5736 5740 5743 5747 5750 5753 5756 5759 5763 5765 5768 5770 5772 5774 5776 5779 5781 5783 5783 5783 5783 5783 5783 5783 5783 5783 5782 5782 5780 5778 5777 5776 5774 5773 5771
5692 5696 5701 5704 5709 5714 5720 5724 5728 5733 5737 5741 5744 5747 5750 5753 5757 5758 5761 5764 5766 5768 5771 5772 5774 5776 5777 5778 5780 5780 5780 5782 5781 5782 5781 5780 5780 5778 5776 5775 5773 5771 5770 5768 5766
5686 5692 5697 5702 5707 5712 5718 5723 5728 5733 5737 5741 5746 5748 5751 5753 5756 5758 5760 5763 5764 5766 5768 5770 5771 5773 5774 5776 5777 5778 5779 5780 5780 5780 5779 5778 5776 5775 5773 5771 5769 5767 5765 5763 5760
5678 5685 5692 5698 5704 5711 5716 5723 5728 5732 5737 5741 5745 5747 5750 5752 5754 5756 5759 5761 5762 5764 5766 5767 5769 5771 5772 5774 5775 5777 5777 5778 5778 5778 5776 5776 5775 5772 5770 5768 5766 5764 5761 5758 5754
5672 5679 5687 5695 5702 5708 5714 5722 5727 5732 5736 5741 5744 5746 5748 5750 5752 5754 5755 5757 5759 5761 5763 5765 5767 5768 5770 5771 5773 5774 5775 5775 5775 5775 5773 5772 5773 5769 5767 5765 5762 5759 5755 5752 5749
5669 5676 5684 5692 5699 5706 5714 5721 5727 5732 5736 5740 5743 5745 5746 5747 5749 5750 5752 5754 5756 5758 5760 5763 5765 5766 5768 5771 5771 5772 5772 5772 5772 5771 5769 5769 5769 5765 5763 5760 5756 5753 5749 5746 5742
5664 5671 5680 5689 5698 5705 5713 5720 5726 5731 5736 5740 5742 5743 5744 5744 5746 5747 5749 5751 5753 5756 5758 5761 5763 5765 5766 5767 5768 5768 5769 5769 5768 5767 5766 5764 5763 5760 5757 5754 5751 5747 5743 5739 5733
5659 5667 5679 5686 5695 5703 5710 5718 5724 5730 5734 5737 5739 5741 5742 5743 5745 5746 5747 5749 5751 5753 5756 5758 5760 5762 5762 5763 5764 5764 5765 5765 5764 5762 5761 5760 5756 5751 5749 5746 5743 5739 5735 5730 5724
5656 5665 5676 5686 5695 5702 5709 5716 5723 5729 5733 5735 5737 5739 5740 5741 5742 5743 5745 5747 5749 5751 5753 5755 5757 5758 5759 5759 5759 5759 5760 5760 5758 5757 5755 5751 5750 5746 5743 5739 5735 5731 5726 5722 5716
5654 5664 5674 5684 5691 5698 5707 5716 5722 5727 5730 5733 5735 5737 5738 5738 5740 5741 5743 5745 5747 5749 5750 5752 5753 5754 5755 5755 5754 5755 5756 5752 5751 5750 5747 5745 5742 5738 5735 5731 5727 5723 5718 5713 5706